Location: Ford County Road and Bridge Department
(37.7686°N, 99.9762°W)
Time: 21:52:16
(UTC+00:00)

COSMO-SKYMED 1 - Pass Details

Date: 18 January 2020
Orbit: 621 x 623 km, 97.9° (Epoch: 20 February)

Event Time Altitude Azimuth Distance (km) Brightness Sun altitude
Rises 00:09:20 0° 22° (NNE) 2,908 5.6 -4.9°
Reaches altitude 10° 00:11:41 10° 31° (NNE) 1,997 4.7 -5.4°
Maximum altitude 00:15:40 35° 98° (E) 1,011 3.2 -6.1°
Drops below altitude 10° 00:19:37 10° 164° (SSE) 1,983 5.2 -6.8°
Sets 00:21:57 0° 173° (S) 2,884 6.2 -7.2°
